Location: Darmstadt
(49.8706°N, 8.6494°E)
Time: 05:58:04
(UTC+01:00)

Cosmos 1455 - Pass Details

Date: 31 October 2020
Orbit: 499 x 521 km, 82.5° (Epoch: 02 December)

Event Time Altitude Azimuth Distance (km) Brightness Sun altitude
Rises 18:19:27 0° 171° (S) 2,604 5.8 -12.6°
Reaches altitude 10° 18:21:37 10° 164° (SSE) 1,728 4.8 -13.0°
Maximum altitude 18:25:12 42° 93° (E) 747 2.5 -13.6°
Drops below altitude 10° 18:28:51 10° 23° (NNE) 1,756 4.6 -14.1°
Sets 18:31:04 0° 16° (NNE) 2,652 5.6 -14.5°
